Regional Weather Roundup
Issued by NWS

Home | Current Version | Previous Version | Graphics & Text | Print | Product List | Glossary On
Versions: 1 2 3 4 5 6 7 8 9 10 11 12 13 14 15 16 17 18 19 20 21 22 23 24 25 26 27 28 29 30 31 32 33 34 35 36 37 38 39 40 41 42 43 44 45 46 47 48 49 50
000
ASUS43 KOAX 262302
RWRNE

WEATHER ROUNDUP FOR NEBRASKA
NATIONAL WEATHER SERVICE OMAHA NE
600 PM CDT TUE JUL 26 2016

NOTES: SATELLITE DATA IS BEING USED TO AUGMENT CLOUD COVER ABOVE
       12000 FEET.
       "FAIR" INDICATES FEW OR NO CLOUDS BELOW 12,000 FEET WITH NO
       SIGNIFICANT WEATHER AND/OR OBSTRUCTIONS TO VISIBILITY.

  * THESE STATIONS DO NOT REPORT WEATHER SUCH AS RAIN...SNOW OR FOG.

NEZ001>004-019>022-054>056-270000-
NEBRASKA PANHANDLE

CITY           SKY/WX    TMP DP  RH WIND       PRES   REMARKS
SCOTTSBLUFF    CLOUDY    88  58  36 S5        29.98F
ALLIANCE       CLOUDY    89  60  37 SE12      29.98S
CHADRON        SUNNY     94  58  29 VRB3      29.93F HX  93
SIDNEY         PTSUNNY   93  49  22 W9G17     30.03S HX  90
$$

NEZ057>060-069>072-079>082-270000-
SOUTHWEST NEBRASKA

CITY           SKY/WX    TMP DP  RH WIND       PRES   REMARKS
NORTH PLATTE   SUNNY     87  67  51 SE15G22   29.97F HX  90
IMPERIAL       MOSUNNY   90  61  37 S14       30.00R HX  90
LEXINGTON      SUNNY     86  65  48 S14       29.98F
MCCOOK         SUNNY     92  63  38 S12G23    29.98S HX  93
OGALLALA       SUNNY     92  58  31 SE15      29.97F HX  91
$$

NEZ005>010-023>029-035>040-094-270000-
NORTH CENTRAL NEBRASKA

CITY           SKY/WX    TMP DP  RH WIND       PRES   REMARKS
VALENTINE      SUNNY     93  60  33 S17       29.94F HX  93
AINSWORTH      SUNNY     89  64  43 SE17      29.97F HX  90
BROKEN BOW     SUNNY     85  66  53 S14G24    29.99S
O`NEILL        SUNNY     89  58  34 SE14      29.99F
ORD            SUNNY     86  62  44 SE12      29.98R
THEDFORD       PTSUNNY   88  68  52 S12       30.01R HX  91
$$

NEZ041-046>049-061>064-073>077-083>087-270000-
SOUTH CENTRAL NEBRASKA

CITY           SKY/WX    TMP DP  RH WIND       PRES   REMARKS
GRAND ISLAND   SUNNY     87  65  47 SE14      30.00F
AURORA         SUNNY     86  64  48 SE9       30.00S
HASTINGS       SUNNY     87  66  49 SE13      29.99F
HEBRON         SUNNY     86  63  45 S8        29.98F
HOLDREGE       SUNNY     87  62  44 S13       29.99F
KEARNEY *      SUNNY     88  63  42 S15       29.99F
YORK           SUNNY     84  66  54 E9        30.00F
$$

NEZ011>018-030>034-042>045-270000-
NORTHEAST NEBRASKA

CITY           SKY/WX    TMP DP  RH WIND       PRES   REMARKS
NORFOLK        SUNNY     85  66  53 SE12      29.99F
ALBION         SUNNY     83  64  51 SE13      30.01S
BLAIR          SUNNY     84  67  56 E8        30.02S
FREMONT        SUNNY     85  63  47 SE6       30.01F
TEKAMAH        SUNNY     86  64  47 SE9       30.00F
WAYNE          SUNNY     83  69  62 SE9       30.00F
$$

NEZ050>053-065>068-078-088>093-270000-
SOUTHEAST NEBRASKA

CITY           SKY/WX    TMP DP  RH WIND       PRES   REMARKS
LINCOLN        SUNNY     88  63  43 E8        30.01S
OMAHA EPPLEY   MOSUNNY   86  66  51 E9        30.01S
BEATRICE       SUNNY     88  64  44 SE6       29.99S
FALLS CITY     SUNNY     86  67  52 E5        29.98F
NEBRASKA CITY  SUNNY     83  63  50 E6        30.01S
PLATTSMOUTH    SUNNY     85  65  52 E5        30.02R
$$

NEZ044-045-051>053-067-270000-
OMAHA AREA

CITY           SKY/WX    TMP DP  RH WIND       PRES   REMARKS
OMAHA EPPLEY   MOSUNNY   86  66  51 E9        30.01S
BLAIR          SUNNY     84  67  56 E8        30.02S
FREMONT        SUNNY     85  63  47 SE6       30.01F
MILLARD        SUNNY     87  65  48 SE3       30.01R
OFFUTT AFB     SUNNY     86  66  52 E7        30.01S
PLATTSMOUTH    SUNNY     85  65  52 E5        30.02R
WAHOO          FAIR      85  65  52 E6        30.01S
$$




USA.gov is the U.S. government's official web portal to all federal, state and local government web resources and services.